Regional Weather Roundup
Issued by NWS

Home | Current Version | Previous Version | Text Only | Print | Product List | Glossary On
Versions: 1 2 3 4 5 6 7 8 9 10 11 12 13 14 15 16 17 18 19 20 21 22 23 24 25 26 27 28 29 30 31 32 33 34 35 36 37 38 39 40 41 42 43 44 45 46 47 48 49 50
000
ASUS43 KDMX 292108
RWRIA

WEATHER ROUNDUP FOR IOWA
NATIONAL WEATHER SERVICE DES MOINES IA
400 PM CDT THU SEP 29 2016

NOTE: "FAIR" INDICATES FEW OR NO CLOUDS BELOW 12,000 FEET WITH NO
SIGNIFICANT WEATHER AND/OR OBSTRUCTIONS TO VISIBILITY.

* - THESE STATIONS ARE NOT NWS STATIONS...THUS NOT UNDER NWS
QUALITY CONTROL.  THEY ALSO DO NOT REPORT WEATHER SUCH
AS PRECIPITATION OR FOG.

IAZ001>003-012>014-020>022-031>034-043>046-292200-
   NORTHWEST IOWA

CITY           SKY/WX    TMP DP  RH WIND       PRES   REMARKS
CARROLL *      SUNNY     68  45  42 VRB3G14   30.36F
CHEROKEE *     SUNNY     69  48  48 NE5       30.37F
DENISON *      SUNNY     68  46  45 VRB7G14   30.34F
LE MARS *      SUNNY     70  48  46 NE8       30.37F
SHELDON *      SUNNY     68  48  49 MISG      30.36F
SIOUX CITY     SUNNY     72  48  42 E5        30.36F
SPENCER        SUNNY     69  48  47 E8        30.39F
STORM LAKE *   SUNNY     68  46  45 E9        30.38F
$$

IAZ055>058-069>071-079>083-090>094-292200-
   SOUTHWEST IOWA

CITY           SKY/WX    TMP DP  RH WIND       PRES   REMARKS
ATLANTIC *     SUNNY     70  46  43 NE9G16    30.34F
AUDUBON *      SUNNY     68  46  45 N7        30.37S
CLARINDA *       N/A     72  48  43 MISG      30.35F
COUNCIL BLFS * SUNNY     70  46  43 NE7       30.35F
CRESTON *      SUNNY     70  46  43 N8        30.34F
HARLAN  *      SUNNY     70  46  43 NE8       30.38F
LAMONI         SUNNY     71  50  47 N10       30.30F
RED OAK *      SUNNY     70  50  49 N10       30.34F
SHENANDOAH *   SUNNY     72  46  40 NE6G15    30.34F
$$

IAZ047>049-059>061-072>074-084-292200-
   CENTRAL IOWA

CITY           SKY/WX    TMP DP  RH WIND       PRES   REMARKS
AMES           SUNNY     73  49  42 N9        30.32F
ANKENY *         N/A    N/A N/A N/A MISG        N/A
BOONE *        SUNNY     72  45  37 NE10      30.32F
CHARITON *       N/A     73  48  40 N14G21    30.29F
DES MOINES     MOSUNNY   74  45  35 NE8       30.30F
GRINNELL*      SUNNY     74  46  36 N13G18    30.29F
KNOXVILLE *    SUNNY     73  46  38 N13       30.28F
MARSHALLTOWN   SUNNY     73  48  41 N12       30.30F
NEWTON *       SUNNY     72  48  43 N13G22    30.29F
PELLA *        SUNNY     74  46  35 N10G16    30.30F
PERRY *          N/A     71  47  42 N8G16     30.34F
$$

IAZ004>006-015-016-023>025-035-036-292200-
   NORTH CENTRAL IOWA

CITY           SKY/WX    TMP DP  RH WIND       PRES   REMARKS
ALGONA *       SUNNY     68  50  52 N9        30.38F
CLARION *      SUNNY     72  45  37 N7G14     30.35F
ESTHERVILLE    SUNNY     65  49  56 E10       30.39F
FORT DODGE *   SUNNY     66  52  59 N9        30.37F
MASON CITY     SUNNY     72  43  35 VRB7      30.37F
FOREST CITY *    N/A     72  45  37 NE7       30.36F
WEBSTER CITY * SUNNY     72  45  37 NE8G15    30.32F
IOWA FALLS *     N/A     73  45  37 N7        30.34F
$$

IAZ007>011-017>019-026>030-037>042-050>054-066-292200-
   NORTHEAST IOWA

CITY           SKY/WX    TMP DP  RH WIND       PRES   REMARKS
CEDAR RAPIDS   SUNNY     74  50  42 N15G24    30.26F
CHARLES CITY * SUNNY     73  45  35 NE12      30.34F
CLINTON *      MOSUNNY   74  53  48 N17G26    30.23F
DECORAH *      SUNNY     70  50  49 NE8G15    30.33S
DUBUQUE        SUNNY     72  49  44 NE15G25   30.26F
MONTICELLO *   SUNNY     73  46  38 NE12G22   30.25F
OELWEIN *      SUNNY     73  46  38 NE15G22   30.31F
WATERLOO       SUNNY     74  46  36 N13G22    30.30F
$$

IAZ064-065-067-068-078-292200-
   EAST CENTRAL IOWA

CITY           SKY/WX    TMP DP  RH WIND       PRES   REMARKS
DAVENPORT      MOSUNNY   73  51  46 NE20      30.23S
IOWA CITY      SUNNY     75  46  35 N15G25    30.26F
MT. PLEASANT * SUNNY     78  42  27 N17G25    30.22S
MUSCATINE *    SUNNY     77  48  36 N14G24    30.22S
QUAD CITIES    MOSUNNY   74  52  46 N13G22    30.21S
$$

IAZ062-063-075>077-085>089-095>099-292200-
   SOUTHEAST IOWA

CITY           SKY/WX    TMP DP  RH WIND       PRES   REMARKS
BURLINGTON     SUNNY     74  51  44 N16G24    30.20F
FAIRFIELD *    SUNNY     75  41  29 N15G23    30.24S HAZE
FORT MADISON *   N/A     75  46  35 N10G23    30.21S
KEOKUK *       SUNNY     77  46  33 NE16      30.19F
OSKALOOSA *      N/A     76  43  31 N14G22    30.27S
OTTUMWA        SUNNY     76  44  32 NE16G23   30.26F
WASHINGTON *     N/A    N/A N/A N/A MISG        N/A
$$

ABBREVIATIONS USED IN REMARKS
   TC - TEMPERATURES IN CELSIUS
  WCI - WIND CHILL INDEX
   HX - HEAT INDEX
  VSB - VISIBILITY
$$





USA.gov is the U.S. government's official web portal to all federal, state and local government web resources and services.